TimeCST,TemperatureF,Dew PointF,Humidity,Sea Level PressureIn,VisibilityMPH,Wind Direction,Wind SpeedMPH,Gust SpeedMPH,PrecipitationIn,Events,Conditions,WindDirDegrees,DateUTC
12:01 AM,44.6,42.8,93,30.20,1.8,Calm,Calm,-,N/A,,Mostly Cloudy,0,2011-11-25 06:01:00
12:11 AM,42.8,42.8,100,30.20,0.5,Calm,Calm,-,N/A,Fog,Fog,0,2011-11-25 06:11:00
12:23 AM,42.8,41.0,93,30.19,0.2,Calm,Calm,-,N/A,Fog,Fog,0,2011-11-25 06:23:00
12:30 AM,42.8,42.8,100,30.20,1.0,Calm,Calm,-,N/A,,Mist,0,2011-11-25 06:30:00
12:44 AM,42.8,42.8,100,30.19,0.8,Calm,Calm,-,N/A,,Mist,0,2011-11-25 06:44:00
12:51 AM,42.8,41.0,93,30.19,1.8,Calm,Calm,-,N/A,,Scattered Clouds,0,2011-11-25 06:51:00
12:52 AM,42.1,41.0,96,30.19,2.0,Calm,Calm,-,N/A,,Scattered Clouds,0,2011-11-25 06:52:00
1:06 AM,42.8,41.0,93,30.19,5.0,Calm,Calm,-,N/A,,Partly Cloudy,0,2011-11-25 07:06:00
1:53 AM,44.6,42.8,93,30.18,4.0,SSE,5.8,-,N/A,,Clear,150,2011-11-25 07:53:00
2:53 AM,45.0,44.1,97,30.17,4.0,South,4.6,-,N/A,,Clear,170,2011-11-25 08:53:00
4:21 AM,42.8,42.8,100,30.17,2.5,South,3.5,-,N/A,,Partly Cloudy,170,2011-11-25 10:21:00
4:25 AM,42.8,41.0,93,30.17,1.0,South,3.5,-,N/A,,Mist,170,2011-11-25 10:25:00
4:34 AM,42.8,41.0,93,30.17,0.5,SSE,3.5,-,N/A,Fog,Fog,160,2011-11-25 10:34:00
4:53 AM,42.1,41.0,96,30.16,0.8,SE,5.8,-,N/A,,Mist,140,2011-11-25 10:53:00
5:00 AM,42.8,42.8,100,30.16,2.0,SSE,6.9,-,N/A,,Mostly Cloudy,150,2011-11-25 11:00:00
5:12 AM,44.6,42.8,93,30.16,3.0,SSE,4.6,-,N/A,,Mostly Cloudy,160,2011-11-25 11:12:00
5:53 AM,46.0,45.0,96,30.17,4.0,SSE,5.8,-,N/A,,Overcast,160,2011-11-25 11:53:00
6:04 AM,46.4,46.4,100,30.17,1.8,South,5.8,-,N/A,,Overcast,170,2011-11-25 12:04:00
6:24 AM,46.4,46.4,100,30.16,3.0,SE,6.9,-,N/A,,Overcast,140,2011-11-25 12:24:00
6:34 AM,46.4,46.4,100,30.16,3.0,SSE,5.8,-,N/A,,Mostly Cloudy,150,2011-11-25 12:34:00
6:41 AM,46.4,46.4,100,30.16,3.0,SE,5.8,-,N/A,,Scattered Clouds,140,2011-11-25 12:41:00
6:53 AM,46.9,46.0,97,30.15,3.0,SSE,5.8,-,N/A,,Clear,150,2011-11-25 12:53:00
7:53 AM,50.0,48.0,93,30.15,5.0,SSE,6.9,-,N/A,,Clear,150,2011-11-25 13:53:00
8:53 AM,55.0,52.0,89,30.14,8.0,SSE,9.2,-,N/A,,Clear,150,2011-11-25 14:53:00
9:53 AM,57.2,53.6,88,30.13,10.0,SSE,13.8,-,N/A,,Clear,150,2011-11-25 15:53:00
10:53 AM,64.0,54.0,70,30.11,10.0,SSE,15.0,-,N/A,,Clear,150,2011-11-25 16:53:00
11:53 AM,66.9,55.0,66,30.08,10.0,South,11.5,-,N/A,,Partly Cloudy,170,2011-11-25 17:53:00
12:53 PM,70.0,55.9,61,30.03,10.0,SE,9.2,-,N/A,,Mostly Cloudy,140,2011-11-25 18:53:00
1:53 PM,71.1,54.0,55,29.99,10.0,South,13.8,-,N/A,,Scattered Clouds,180,2011-11-25 19:53:00
2:53 PM,70.0,54.0,57,29.96,-9999.0,SSE,15.0,-,N/A,,Unknown,160,2011-11-25 20:53:00
3:53 PM,70.0,54.0,57,29.95,10.0,South,16.1,21.9,N/A,,Mostly Cloudy,170,2011-11-25 21:53:00
4:53 PM,68.0,55.0,63,29.94,10.0,SSE,10.4,-,N/A,,Mostly Cloudy,150,2011-11-25 22:53:00
5:53 PM,66.9,55.0,66,29.93,10.0,SSE,11.5,-,N/A,,Mostly Cloudy,150,2011-11-25 23:53:00
6:53 PM,66.0,55.9,70,29.94,10.0,SSE,9.2,-,N/A,,Overcast,160,2011-11-26 00:53:00
7:53 PM,66.0,55.9,70,29.96,10.0,SSE,8.1,-,N/A,,Overcast,160,2011-11-26 01:53:00
8:53 PM,66.0,57.0,73,29.96,10.0,South,9.2,-,N/A,,Overcast,170,2011-11-26 02:53:00
9:53 PM,64.9,57.0,75,29.99,10.0,SSE,5.8,-,N/A,,Overcast,160,2011-11-26 03:53:00
10:53 PM,64.9,57.9,78,29.97,10.0,SSE,9.2,-,N/A,,Overcast,160,2011-11-26 04:53:00
11:53 PM,64.9,55.9,73,29.93,10.0,SSE,13.8,-,N/A,,Clear,160,2011-11-26 05:53:00